Location: LDNL
(36.4545°S, 141.6685°E)
Time: 03:00:53
(UTC+10:00)

Courier 1B Rocket - Pass Details

Date: 13 August 2022
Orbit: 920 x 1202 km, 28.2° (Epoch: 20 September)

Event Time Altitude Azimuth Distance (km) Brightness Sun altitude
Exits shadow 04:07:40 32° 36° (NE) 1,938 6.6 -38.8°
Drops below altitude 10° 04:13:01 10° 77° (ENE) 3,084 8.2 -37.8°
Sets 04:16:05 0° 86° (E) 4,015 9.1 -37.2°
